Weather Roundup
Issued by NWS

Home | Current Version | Previous Version | Text Only | Print | Product List | Glossary On
Versions: 1 2 3 4 5 6 7 8 9 10 11 12 13 14 15 16 17 18 19 20 21 22 23 24 25 26 27 28 29 30 31 32 33 34 35 36 37 38 39 40 41 42 43 44 45 46 47 48 49 50
000
NZUS93 KARX 030259
HRRWXR

CURRENT HOURLY OBSERVATIONS ACROSS
MUCH OF THE UPPER MISSISSIPPI VALLEY
NATIONAL WEATHER SERVICE LA CROSSE WI
1000 PM CDT TUE SEP 02 2014


...SOUTHEAST MINNESOTA...


CITY           SKY/WX    TMP DP  RH WIND       PRES   REMARKS
ROCHESTER      CLEAR     61  57  87 SW5       29.93S
ROCHESTER/MAYO FAIR      67  55  65 SW9       29.92R
WINONA         CLEAR     63  63 100 CALM      29.91R
AUSTIN         CLEAR     63  57  82 CALM      29.93R
ALBERT LEA     CLEAR     63  61  94 CALM      29.92S
DODGE CENTER   CLEAR     63  57  82 SW3       29.92S
PRESTON        CLEAR     62  61  97 CALM      29.94R
OWATONNA       CLEAR     63  57  82 S7        29.91S
FARIBAULT      CLEAR     66  57  72 CALM      29.90S
$$

...ELSEWHERE IN MINNESOTA...


CITY           SKY/WX    TMP DP  RH WIND       PRES   REMARKS
MINNEAPOLIS    PTCLDY    70  57  63 SW6       29.87S
INTNL FALLS    CLOUDY    57  54  89 S3        29.74F
DULUTH         PTCLDY    58  53  84 SE5       29.82S
RED WING       CLEAR     61  57  88 CALM      29.88S
REDWOOD FALLS  PTCLDY    64  58  80 S9        29.87S
MANKATO        CLEAR     64  55  72 S7        29.90R
WORTHINGTON    MOCLDY    63  57  82 S6        29.92F
FAIRMONT       CLEAR     61  54  77 CALM      29.91S
$$

...SOUTHWEST WISCONSIN...


CITY           SKY/WX    TMP DP  RH WIND       PRES   REMARKS
LA CROSSE      CLEAR     66  60  81 SE5       29.90R
PRAIRIE DU CHI NOT AVBL
BOSCOBEL       CLEAR     63  60  90 CALM      29.94R
LONE ROCK      NOT AVBL
PLATTEVILLE    CLEAR     65  58  78 CALM      29.96R
FORT MC COY    CLEAR     60  59  96 CALM      29.92R
VIROQUA        FAIR      63  59  89 SW3       29.93S
WIS DELLS      CLEAR     62  57  82 CALM      29.92S
$$

...ELSEWHERE IN WISCONSIN...


CITY           SKY/WX    TMP DP  RH WIND       PRES   REMARKS
MILWAUKEE      CLEAR     67  58  72 CALM      29.93R
MADISON        CLEAR     62  57  83 CALM      29.93R
GREEN BAY      CLEAR     61  59  93 CALM      29.88S
EAU CLAIRE     CLEAR     60  58  92 SW5       29.88S
BLACK RVR FLS  FAIR      56  56 100 CALM      29.90S
MEDFORD        CLEAR     53  53  97 CALM      29.91R
WAUSAU         CLEAR     60  57  89 CALM      29.89R
WIS RAPIDS     CLEAR     60  57  89 CALM      29.91S
MARSHFIELD     CLEAR     60  56  86 W3        29.91R
RICE LAKE      CLEAR     60  54  82 CALM      29.89S
$$

...NORTHEAST IOWA...


CITY           SKY/WX    TMP DP  RH WIND       PRES   REMARKS
WATERLOO       CLEAR     66  62  87 CALM      29.94R
DUBUQUE        CLEAR     61  58  90 CALM      29.96R
DECORAH        CLEAR     64  59  82 S5        29.94R
MASON CITY     CLEAR     61  59  93 SW5       29.95R
CHARLES CITY   CLEAR     63  59  88 S6        29.95R
OELWEIN        CLEAR     61  59  94 S5        29.96R
$$

...ELSEWHERE IN IOWA...


CITY           SKY/WX    TMP DP  RH WIND       PRES   REMARKS
DES MOINES     CLEAR     71  61  70 S3        29.95S
IOWA CITY      CLEAR     66  62  87 CALM      29.97R
FORT DODGE     CLEAR     63  59  88 CALM      29.95S
MARSHALLTOWN   CLEAR     65  60  84 S5        29.96R
CEDAR RAPIDS   CLEAR     62  61  96 CALM      29.96R
$$

...NORTHERN ILLINOIS...


CITY           SKY/WX    TMP DP  RH WIND       PRES   REMARKS
CHICAGO-OHARE  PTCLDY    72  58  61 W6        29.94R
DUPAGE         PTCLDY    69  61  75 W3        29.94R
CHICAGO-MIDWAY PTCLDY    75  59  57 SW6       29.94R
MOLINE         CLEAR     66  60  81 CALM      29.96R
ROCKFORD       CLEAR     65  61  87 CALM      29.96R
STERLING       CLEAR     63  59  88 CALM      29.96R
PEORIA         PTCLDY    71  65  81 CALM      29.97R
$$

NOTE: "FAIR" INDICATES FEW OR NO CLOUDS BELOW 12,000 FEET WITH NO
SIGNIFICANT WEATHER AND/OR OBSTRUCTIONS TO VISIBILITY. WIND
SPEEDS ARE IN MILES-PER-HOUR.



USA.gov is the U.S. government's official web portal to all federal, state and local government web resources and services.